LILACSAT-2

Last updated on Sun Aug 09 2026 00:03:15 GMT+0000 (Coordinated Universal Time)

1 40908U 15049K 26220.61601554 .00010381 00000+0 16700-3 0 9999 2 40908 97.4617 259.4994 0008250 71.5002 288.7146 15.53147418603889
UTC large
Height (km)
Speed (km/s)
/
Latitude / Longitude
Inclination (degrees)
Orbital Period (minutes)
Azimuth
Elevation
Range (km)
Doppler Factor

Next 0 passes for location: London (51.5072 / 0.1276)

No passes found over London.
LILACSAT-2